FW6045 Weather Reports


Display with metric or nautical units.
time (UTC)temp
F
wind
direction
speed
MPH
gust
MPH
rain 1hr
in
rain 24hr
in
rain mn
in
humidity
%
barometer
mb
20260902071632 77 200 2.0 5.0 0.00 0.00 0.00 86 1016.8
20260902070104 77 188 3.0 6.0 0.00 0.00 0.00 86 1016.9
20260902064612 77 182 3.0 5.0 0.00 0.00 0.00 86 1016.8
20260902063133 76 182 4.0 5.0 0.00 0.00 0.00 91 1016.8
20260902061605 75 182 3.0 5.0 0.00 0.00 0.00 93 1016.9
20260902060137 76 175 3.0 4.0 0.00 0.00 0.00 90 1017.0
20260902054603 77 202 2.0 4.0 0.00 0.00 0.00 88 1017.0
20260902053105 78 202 3.0 5.0 0.00 0.00 0.00 85 1017.0
20260902051613 78 197 3.0 5.0 0.00 0.00 0.00 85 1016.8
20260902050108 78 197 3.0 5.0 0.00 0.00 0.00 85 1016.9
20260902044601 79 195 4.0 6.0 0.00 0.00 0.00 85 1016.9
20260902043109 79 190 3.0 5.0 0.00 0.00 0.00 85 1016.8
20260902041604 80 204 3.0 5.0 0.00 0.00 0.00 83 1016.9
20260902040107 79 203 3.0 5.0 0.00 0.00 0.00 84 1016.9
20260902034601 80 195 4.0 6.0 0.00 0.00 0.00 83 1017.0
20260902033117 80 203 4.0 6.0 0.00 0.00 0.00 83 1016.9
20260902031606 80 206 3.0 6.0 0.00 0.00 0.00 82 1016.8
20260902024618 82 202 1.0 5.0 0.00 0.00 0.00 78 1016.9
20260902023100 83 202 2.0 5.0 0.00 0.00 0.00 75 1016.9
20260902021602 84 179 3.0 5.0 0.00 0.00 0.00 77 1017.0
20260902020139 83 178 4.0 6.0 0.00 0.00 0.00 74 1016.9
20260902014603 85 178 4.0 7.0 0.00 0.00 0.00 72 1016.9
20260902013120 86 176 3.0 5.0 0.00 0.00 0.00 70 1017.0
20260902011602 86 176 3.0 5.0 0.00 0.00 0.00 69 1016.7
20260902010104 87 205 2.0 4.0 0.00 0.00 0.00 66 1016.4
20260902004606 88 205 3.0 4.0 0.00 0.00 0.00 65 1016.4
20260902003105 88 205 3.0 4.0 0.00 0.00 0.00 65 1016.5
20260902001619 88 205 3.0 6.0 0.00 0.00 0.00 64 1016.5
20260902000105 89 200 5.0 7.0 0.00 0.00 0.00 64 1016.5
20260901234613 89 213 4.0 7.0 0.00 0.00 0.00 63 1016.5
20260901233107 90 194 4.0 7.0 0.00 0.00 0.00 62 1016.7
20260901231606 91 216 3.0 5.0 0.00 0.00 0.00 60 1016.9
20260901230106 91 199 4.0 6.0 0.00 0.00 0.00 60 1016.8
20260901224612 92 216 3.0 9.0 0.00 0.00 0.00 59 1016.8
20260901223116 91 229 5.0 10.0 0.00 0.00 0.00 59 1016.7
20260901221631 91 202 5.0 8.0 0.00 0.00 0.00 60 1016.7
20260901220106 91 174 4.0 9.0 0.00 0.00 0.00 59 1016.7
20260901214607 91 190 6.0 11.0 0.00 0.00 0.00 59 1016.6
20260901213106 91 208 4.0 10.0 0.00 0.00 0.00 58 1016.6
20260901211601 92 228 3.0 10.0 0.00 0.00 0.00 57 1016.8
20260901210106 92 216 4.0 11.0 0.00 0.00 0.00 58 1016.7
20260901204602 92 205 4.0 11.0 0.00 0.00 0.00 59 1016.8
20260901203106 91 178 5.0 11.0 0.00 0.00 0.00 59 1016.9
20260901201604 92 236 3.0 9.0 0.00 0.00 0.00 60 1017.1
20260901194600 91 240 4.0 10.0 0.00 0.00 0.00 59 1017.2
20260901193110 91 178 3.0 13.0 0.00 0.00 0.00 63 1017.3
20260901191606 91 287 6.0 13.0 0.00 0.00 0.00 62 1017.5
20260901190059 91 232 4.0 11.0 0.00 0.00 0.00 64 1017.6
20260901184610 90 229 8.0 13.0 0.00 0.00 0.00 63 1017.7
20260901183107 90 266 6.0 14.0 0.00 0.00 0.00 63 1018.0
20260901181600 90 241 4.0 14.0 0.00 0.00 0.00 64 1018.0
20260901174602 89 225 7.0 14.0 0.00 0.00 0.00 65 1018.1
20260901173102 88 240 9.0 15.0 0.00 0.00 0.00 66 1018.3
20260901171607 88 248 5.0 16.0 0.00 0.00 0.00 67 1018.5
20260901170106 88 309 8.0 17.0 0.00 0.00 0.00 67 1018.5
20260901164611 87 254 7.0 14.0 0.00 0.00 0.00 69 1018.6
20260901163116 87 282 10.0 17.0 0.00 0.00 0.00 68 1018.6
20260901161604 87 239 4.0 17.0 0.00 0.00 0.00 71 1018.9
20260901160107 86 253 4.0 13.0 0.00 0.00 0.00 72 1018.8
20260901154607 85 265 7.0 10.0 0.00 0.00 0.00 73 1018.9
20260901153105 85 238 5.0 11.0 0.00 0.00 0.00 74 1018.8
20260901151604 84 202 6.0 12.0 0.00 0.00 0.00 75 1019.0
20260901150116 83 190 4.0 11.0 0.00 0.00 0.00 78 1019.1
20260901144603 82 206 4.0 9.0 0.00 0.00 0.00 79 1019.3
20260901143109 80 233 4.0 8.0 0.00 0.00 0.00 80 1019.2
20260901141602 79 253 3.0 7.0 0.00 0.00 0.00 81 1019.1
20260901140112 78 225 2.0 5.0 0.00 0.00 0.00 85 1019.2
20260901134631 77 211 5.0 8.0 0.00 0.00 0.00 86 1018.9
20260901133104 76 202 2.0 5.0 0.00 0.00 0.00 86 1019.1
20260901131602 75 188 2.0 5.0 0.00 0.00 0.00 87 1019.3
20260901130109 74 192 2.0 7.0 0.00 0.00 0.00 88 1019.3
20260901124608 74 184 5.0 7.0 0.00 0.00 0.00 89 1019.2
20260901123103 73 191 3.0 7.0 0.00 0.00 0.00 91 1019.3
20260901121604 73 175 3.0 6.0 0.00 0.00 0.00 91 1019.1
20260901120106 72 187 3.0 5.0 0.00 0.00 0.00 91 1018.9
20260901114612 72 183 3.0 7.0 0.00 0.00 0.00 92 1018.8
20260901113140 72 165 5.0 8.0 0.00 0.00 0.00 91 1018.6
20260901111603 73 166 5.0 8.0 0.00 0.00 0.00 91 1018.3
20260901110111 73 198 3.0 4.0 0.00 0.00 0.00 89 1018.2
20260901104613 74 200 3.0 5.0 0.00 0.00 0.00 88 1018.1
20260901103106 74 207 3.0 5.0 0.00 0.00 0.00 87 1018.0
20260901101616 74 207 3.0 5.0 0.00 0.00 0.00 86 1017.9
20260901100115 75 208 3.0 5.0 0.00 0.00 0.00 86 1017.7
20260901094600 75 0 0.0 3.0 0.00 0.00 0.00 85 1017.6
20260901093107 75 252 0.0 2.0 0.00 0.00 0.00 85 1017.6
20260901091604 75 252 1.0 2.0 0.00 0.00 0.00 84 1017.4
20260901090109 75 252 2.0 3.0 0.00 0.00 0.00 85 1017.4
20260901084607 75 239 3.0 6.0 0.00 0.00 0.00 85 1017.2
20260901083106 75 248 5.0 8.0 0.00 0.00 0.00 85 1016.9
20260901081616 75 226 4.0 10.0 0.00 0.00 0.00 84 1016.8
20260901080105 76 217 7.0 10.0 0.00 0.00 0.00 84 1016.5
20260901074604 76 227 6.0 10.0 0.00 0.00 0.00 84 1016.6
20260901073103 75 221 6.0 9.0 0.00 0.00 0.00 86 1016.6